owner,sensor,date,latitude,longitude,air_pressure(mBar),qcFlag 
TABS,ioos:station:wmo:42045:1,2017-08-24T09:30:00Z,26.2168,-96.4998,1009.2,11111222 
TABS,ioos:station:wmo:42045:1,2017-08-24T10:00:00Z,26.2168,-96.4998,1009.1,11111222 
TABS,ioos:station:wmo:42045:1,2017-08-24T10:30:00Z,26.2168,-96.4998,1009.2,11111222 
TABS,ioos:station:wmo:42045:1,2017-08-24T11:00:00Z,26.2168,-96.4998,1009.5,11111222 
TABS,ioos:station:wmo:42045:1,2017-08-24T11:30:00Z,26.2168,-96.4998,1009.6,11111222 
TABS,ioos:station:wmo:42045:1,2017-08-24T12:00:00Z,26.2168,-96.4998,1009.8,11111222 
TABS,ioos:station:wmo:42045:1,2017-08-24T12:30:00Z,26.2168,-96.4998,1010.1,11111222 
TABS,ioos:station:wmo:42045:1,2017-08-24T13:00:00Z,26.2168,-96.4998,1010.02,11111222 
TABS,ioos:station:wmo:42045:1,2017-08-24T13:30:00Z,26.2168,-96.4998,1009.74,11111222 
TABS,ioos:station:wmo:42045:1,2017-08-24T14:00:00Z,26.2168,-96.4998,1009.61,11111222 
TABS,ioos:station:wmo:42045:1,2017-08-24T14:30:00Z,26.2168,-96.4998,1009.33,11111222 
TABS,ioos:station:wmo:42045:1,2017-08-24T15:00:00Z,26.2168,-96.4998,1009.61,11111222 
TABS,ioos:station:wmo:42045:1,2017-08-24T15:30:00Z,26.2168,-96.4998,1009.75,11111222 
TABS,ioos:station:wmo:42045:1,2017-08-24T16:00:00Z,26.2168,-96.4998,1009.87,11111222 
TABS,ioos:station:wmo:42045:1,2017-08-24T16:30:00Z,26.2168,-96.4998,1009.68,11111222 
TABS,ioos:station:wmo:42045:1,2017-08-24T17:00:00Z,26.2168,-96.4998,1009.45,11111222 
TABS,ioos:station:wmo:42045:1,2017-08-24T17:30:00Z,26.2168,-96.4998,1009.35,11111222 
TABS,ioos:station:wmo:42045:1,2017-08-24T18:00:00Z,26.2168,-96.4998,1008.67,11111222 
TABS,ioos:station:wmo:42045:1,2017-08-24T18:30:00Z,26.2168,-96.4998,1008.49,11111222 
TABS,ioos:station:wmo:42045:1,2017-08-24T19:00:00Z,26.2168,-96.4998,1009.19,11111222 
TABS,ioos:station:wmo:42045:1,2017-08-24T19:30:00Z,26.2168,-96.4998,1008.04,11111222 
TABS,ioos:station:wmo:42045:1,2017-08-24T20:00:00Z,26.2168,-96.4998,1007.74,11111222 
TABS,ioos:station:wmo:42045:1,2017-08-24T20:30:00Z,26.2168,-96.4998,1007.1,11111222 
TABS,ioos:station:wmo:42045:1,2017-08-24T21:00:00Z,26.2168,-96.4998,1006.68,11111222 
TABS,ioos:station:wmo:42045:1,2017-08-24T21:30:00Z,26.2168,-96.4998,1006.26,11111222 
TABS,ioos:station:wmo:42045:1,2017-08-24T22:00:00Z,26.2168,-96.4998,1005.94,11111222 
TABS,ioos:station:wmo:42045:1,2017-08-24T22:30:00Z,26.2168,-96.4998,1005.59,11111222 
TABS,ioos:station:wmo:42045:1,2017-08-24T23:00:00Z,26.2168,-96.4998,1005.09,11111222 
TABS,ioos:station:wmo:42045:1,2017-08-24T23:30:00Z,26.2168,-96.4998,1004.89,11111222 
TABS,ioos:station:wmo:42045:1,2017-08-25T00:00:00Z,26.2168,-96.4998,1005.38,11111222 
TABS,ioos:station:wmo:42045:1,2017-08-25T00:30:00Z,26.2168,-96.4998,1004.87,11111222 
TABS,ioos:station:wmo:42045:1,2017-08-25T01:00:00Z,26.2168,-96.4998,1005.37,11111222 
TABS,ioos:station:wmo:42045:1,2017-08-25T01:30:00Z,26.2168,-96.4998,1005.11,11111222 
TABS,ioos:station:wmo:42045:1,2017-08-25T02:00:00Z,26.2168,-96.4998,1004.38,11111222 
TABS,ioos:station:wmo:42045:1,2017-08-25T02:30:00Z,26.2168,-96.4998,1004.65,11111222 
TABS,ioos:station:wmo:42045:1,2017-08-25T03:00:00Z,26.2168,-96.4998,1005.18,11111222 
TABS,ioos:station:wmo:42045:1,2017-08-25T03:30:00Z,26.2168,-96.4998,1005.2,11111222 
TABS,ioos:station:wmo:42045:1,2017-08-25T04:00:00Z,26.2168,-96.4998,1004.47,11111222 
TABS,ioos:station:wmo:42045:1,2017-08-25T04:30:00Z,26.2168,-96.4998,1004.86,11111222 
TABS,ioos:station:wmo:42045:1,2017-08-25T05:00:00Z,26.2168,-96.4998,1003.69,11111222 
TABS,ioos:station:wmo:42045:1,2017-08-25T05:30:00Z,26.2168,-96.4998,1002.68,11111222 
TABS,ioos:station:wmo:42045:1,2017-08-25T06:00:00Z,26.2168,-96.4998,1001.65,11111222 
TABS,ioos:station:wmo:42045:1,2017-08-25T06:30:00Z,26.2168,-96.4998,1002.07,11111222 
TABS,ioos:station:wmo:42045:1,2017-08-25T07:00:00Z,26.2168,-96.4998,1001.63,11111222 
TABS,ioos:station:wmo:42045:1,2017-08-25T07:30:00Z,26.2168,-96.4998,999.8,11111222 
TABS,ioos:station:wmo:42045:1,2017-08-25T08:00:00Z,26.2168,-96.4998,1000.36,11111222 
TABS,ioos:station:wmo:42045:1,2017-08-25T08:30:00Z,26.2168,-96.4998,998.52,11111222 
TABS,ioos:station:wmo:42045:1,2017-08-25T09:00:00Z,26.2168,-96.4998,997.14,11111222 
TABS,ioos:station:wmo:42045:1,2017-08-25T09:30:00Z,26.2168,-96.4998,997.27,11111222 
TABS,ioos:station:wmo:42045:1,2017-08-25T10:00:00Z,26.2168,-96.4998,996.91,11111222 
TABS,ioos:station:wmo:42045:1,2017-08-25T10:30:00Z,26.2168,-96.4998,995.41,11111222 
TABS,ioos:station:wmo:42045:1,2017-08-25T11:00:00Z,26.2168,-96.4998,994.41,11111222 
TABS,ioos:station:wmo:42045:1,2017-08-25T11:30:00Z,26.2168,-96.4998,992.14,11111222 
TABS,ioos:station:wmo:42045:1,2017-08-25T12:00:00Z,26.2168,-96.4998,991.3,11111222 
TABS,ioos:station:wmo:42045:1,2017-08-25T12:30:00Z,26.2168,-96.4998,994.28,11111222 
TABS,ioos:station:wmo:42045:1,2017-08-25T13:00:00Z,26.2168,-96.4998,991.17,11111222 
TABS,ioos:station:wmo:42045:1,2017-08-25T13:30:00Z,26.2168,-96.4998,990.6,11111222 
TABS,ioos:station:wmo:42045:1,2017-08-25T14:00:00Z,26.2168,-96.4998,991.82,11111222 
TABS,ioos:station:wmo:42045:1,2017-08-25T14:30:00Z,26.2168,-96.4998,992.91,11111222 
TABS,ioos:station:wmo:42045:1,2017-08-25T15:00:00Z,26.2168,-96.4998,994.96,11111222 
TABS,ioos:station:wmo:42045:1,2017-08-25T15:30:00Z,26.2168,-96.4998,995.92,11111222 
TABS,ioos:station:wmo:42045:1,2017-08-25T16:00:00Z,26.2168,-96.4998,996.91,11111222 
TABS,ioos:station:wmo:42045:1,2017-08-25T16:30:00Z,26.2168,-96.4998,996.34,11111222 
TABS,ioos:station:wmo:42045:1,2017-08-25T17:00:00Z,26.2168,-96.4998,996.24,11111222 
TABS,ioos:station:wmo:42045:1,2017-08-25T17:30:00Z,26.2168,-96.4998,999.51,11111222 
TABS,ioos:station:wmo:42045:1,2017-08-25T18:00:00Z,26.2168,-96.4998,999.81,11111222 
TABS,ioos:station:wmo:42045:1,2017-08-25T18:30:00Z,26.2168,-96.4998,999.41,11111222 
TABS,ioos:station:wmo:42045:1,2017-08-25T19:00:00Z,26.2168,-96.4998,1000.26,11111222 
TABS,ioos:station:wmo:42045:1,2017-08-25T19:30:00Z,26.2168,-96.4998,1003.03,11111222 
TABS,ioos:station:wmo:42045:1,2017-08-25T20:00:00Z,26.2168,-96.4998,1001.28,11111222 
TABS,ioos:station:wmo:42045:1,2017-08-25T20:30:00Z,26.2168,-96.4998,1001.62,11111222 
TABS,ioos:station:wmo:42045:1,2017-08-25T21:00:00Z,26.2168,-96.4998,1003.14,11111222 
TABS,ioos:station:wmo:42045:1,2017-08-25T21:30:00Z,26.2168,-96.4998,1002.35,11111222 
TABS,ioos:station:wmo:42045:1,2017-08-25T22:00:00Z,26.2168,-96.4998,1002.42,11111222 
TABS,ioos:station:wmo:42045:1,2017-08-25T22:30:00Z,26.2168,-96.4998,1004.41,11111222 
TABS,ioos:station:wmo:42045:1,2017-08-25T23:00:00Z,26.2168,-96.4998,1003.4,11111222 
TABS,ioos:station:wmo:42045:1,2017-08-25T23:30:00Z,26.2168,-96.4998,1002.77,11111222 
TABS,ioos:station:wmo:42045:1,2017-08-26T00:00:00Z,26.2168,-96.4998,1004.06,11111222 
TABS,ioos:station:wmo:42045:1,2017-08-26T00:30:00Z,26.2168,-96.4998,1004.69,11111222 
TABS,ioos:station:wmo:42045:1,2017-08-26T01:00:00Z,26.2168,-96.4998,1004.93,11111222 
TABS,ioos:station:wmo:42045:1,2017-08-26T01:30:00Z,26.2168,-96.4998,1004.98,11111222 
TABS,ioos:station:wmo:42045:1,2017-08-26T02:00:00Z,26.2168,-96.4998,1005.97,11111222 
TABS,ioos:station:wmo:42045:1,2017-08-26T02:30:00Z,26.2168,-96.4998,1006.11,11111222 
TABS,ioos:station:wmo:42045:1,2017-08-26T03:00:00Z,26.2168,-96.4998,1006.75,11111222 
TABS,ioos:station:wmo:42045:1,2017-08-26T03:30:00Z,26.2168,-96.4998,1007.84,11111222 
TABS,ioos:station:wmo:42045:1,2017-08-26T04:00:00Z,26.2168,-96.4998,1007.53,11111222 
TABS,ioos:station:wmo:42045:1,2017-08-26T04:30:00Z,26.2168,-96.4998,1006.66,11111222 
TABS,ioos:station:wmo:42045:1,2017-08-26T05:00:00Z,26.2168,-96.4998,1007.49,11111222 
TABS,ioos:station:wmo:42045:1,2017-08-26T05:30:00Z,26.2168,-96.4998,1007.8,11111222 
TABS,ioos:station:wmo:42045:1,2017-08-26T06:00:00Z,26.2168,-96.4998,1007.87,11111222 
TABS,ioos:station:wmo:42045:1,2017-08-26T06:30:00Z,26.2168,-96.4998,1007.83,11111222 
TABS,ioos:station:wmo:42045:1,2017-08-26T07:00:00Z,26.2168,-96.4998,1007.84,11111222 
TABS,ioos:station:wmo:42045:1,2017-08-26T07:30:00Z,26.2168,-96.4998,1008.21,11111222 
TABS,ioos:station:wmo:42045:1,2017-08-26T08:00:00Z,26.2168,-96.4998,1007.35,11111222 
TABS,ioos:station:wmo:42045:1,2017-08-26T08:30:00Z,26.2168,-96.4998,1007.56,11111222 
TABS,ioos:station:wmo:42045:1,2017-08-26T09:00:00Z,26.2168,-96.4998,1007.3,11111222 
TABS,ioos:station:wmo:42045:1,2017-08-26T09:30:00Z,26.2168,-96.4998,1007.88,11111222 
TABS,ioos:station:wmo:42045:1,2017-08-26T10:00:00Z,26.2168,-96.4998,1007.73,11111222 
TABS,ioos:station:wmo:42045:1,2017-08-26T10:30:00Z,26.2168,-96.4998,1008.2,11111222 
TABS,ioos:station:wmo:42045:1,2017-08-26T11:00:00Z,26.2168,-96.4998,1007.83,11111222 
TABS,ioos:station:wmo:42045:1,2017-08-26T11:30:00Z,26.2168,-96.4998,1007.89,11111222 
TABS,ioos:station:wmo:42045:1,2017-08-26T12:00:00Z,26.2168,-96.4998,1007.99,11111222 
TABS,ioos:station:wmo:42045:1,2017-08-26T12:30:00Z,26.2168,-96.4998,1008.2,11111222 
TABS,ioos:station:wmo:42045:1,2017-08-26T13:00:00Z,26.2168,-96.4998,1008.48,11111222 
TABS,ioos:station:wmo:42045:1,2017-08-26T13:30:00Z,26.2168,-96.4998,1008.74,11111222 
TABS,ioos:station:wmo:42045:1,2017-08-26T14:00:00Z,26.2168,-96.4998,1008.92,11111222 
TABS,ioos:station:wmo:42045:1,2017-08-26T14:30:00Z,26.2168,-96.4998,1009.75,11111222 
TABS,ioos:station:wmo:42045:1,2017-08-26T15:00:00Z,26.2168,-96.4998,1009.96,11111222 
TABS,ioos:station:wmo:42045:1,2017-08-26T15:30:00Z,26.2168,-96.4998,1009.84,11111222 
TABS,ioos:station:wmo:42045:1,2017-08-26T16:00:00Z,26.2168,-96.4998,1009.8,11111222 
TABS,ioos:station:wmo:42045:1,2017-08-26T16:30:00Z,26.2168,-96.4998,1010.13,11111222 
TABS,ioos:station:wmo:42045:1,2017-08-26T17:00:00Z,26.2168,-96.4998,1010.23,11111222 
TABS,ioos:station:wmo:42045:1,2017-08-26T17:30:00Z,26.2168,-96.4998,1010.2,11111222 
TABS,ioos:station:wmo:42045:1,2017-08-26T18:00:00Z,26.2168,-96.4998,1010.02,11111222 
TABS,ioos:station:wmo:42045:1,2017-08-26T18:30:00Z,26.2168,-96.4998,1009.23,11111222 
TABS,ioos:station:wmo:42045:1,2017-08-26T19:00:00Z,26.2168,-96.4998,1008.82,11111222 
TABS,ioos:station:wmo:42045:1,2017-08-26T19:30:00Z,26.2168,-96.4998,1008.54,11111222 
TABS,ioos:station:wmo:42045:1,2017-08-26T20:00:00Z,26.2168,-96.4998,1008.45,11111222 
TABS,ioos:station:wmo:42045:1,2017-08-26T20:30:00Z,26.2168,-96.4998,1007.98,11111222 
TABS,ioos:station:wmo:42045:1,2017-08-26T21:00:00Z,26.2168,-96.4998,1007.91,11111222 
TABS,ioos:station:wmo:42045:1,2017-08-26T21:30:00Z,26.2168,-96.4998,1008.1,11111222 
TABS,ioos:station:wmo:42045:1,2017-08-26T22:00:00Z,26.2168,-96.4998,1007.7,11111222 
TABS,ioos:station:wmo:42045:1,2017-08-26T22:30:00Z,26.2168,-96.4998,1007.5,11111222 
TABS,ioos:station:wmo:42045:1,2017-08-26T23:00:00Z,26.2168,-96.4998,1007.59,11111222 
TABS,ioos:station:wmo:42045:1,2017-08-26T23:30:00Z,26.2168,-96.4998,1007.82,11111222 
TABS,ioos:station:wmo:42045:1,2017-08-27T00:00:00Z,26.2168,-96.4998,1007.95,11111222 
TABS,ioos:station:wmo:42045:1,2017-08-27T00:30:00Z,26.2168,-96.4998,1007.92,11111222 
TABS,ioos:station:wmo:42045:1,2017-08-27T01:00:00Z,26.2168,-96.4998,1007.9,11111222 
TABS,ioos:station:wmo:42045:1,2017-08-27T01:30:00Z,26.2168,-96.4998,1008.82,11111222 
TABS,ioos:station:wmo:42045:1,2017-08-27T02:00:00Z,26.2168,-96.4998,1009.1,11111222 
TABS,ioos:station:wmo:42045:1,2017-08-27T02:30:00Z,26.2168,-96.4998,1008.81,11111222 
TABS,ioos:station:wmo:42045:1,2017-08-27T03:00:00Z,26.2168,-96.4998,1009.21,11111222 
TABS,ioos:station:wmo:42045:1,2017-08-27T03:30:00Z,26.2168,-96.4998,1009.31,11111222 
TABS,ioos:station:wmo:42045:1,2017-08-27T04:00:00Z,26.2168,-96.4998,1009.87,11111222 
TABS,ioos:station:wmo:42045:1,2017-08-27T04:30:00Z,26.2168,-96.4998,1010.04,11111222 
TABS,ioos:station:wmo:42045:1,2017-08-27T05:00:00Z,26.2168,-96.4998,1010.12,11111222 
TABS,ioos:station:wmo:42045:1,2017-08-27T05:30:00Z,26.2168,-96.4998,1010.31,11111222 
TABS,ioos:station:wmo:42045:1,2017-08-27T06:00:00Z,26.2168,-96.4998,1009.27,11111222 
TABS,ioos:station:wmo:42045:1,2017-08-27T06:30:00Z,26.2168,-96.4998,1008.72,11111222 
TABS,ioos:station:wmo:42045:1,2017-08-27T07:00:00Z,26.2168,-96.4998,1008.71,11111222 
TABS,ioos:station:wmo:42045:1,2017-08-27T07:30:00Z,26.2168,-96.4998,1007.68,11111222 
TABS,ioos:station:wmo:42045:1,2017-08-27T08:00:00Z,26.2168,-96.4998,1008.02,11111222 
TABS,ioos:station:wmo:42045:1,2017-08-27T08:30:00Z,26.2168,-96.4998,1007.58,11111222 
TABS,ioos:station:wmo:42045:1,2017-08-27T09:00:00Z,26.2168,-96.4998,1007.86,11111222 
TABS,ioos:station:wmo:42045:1,2017-08-27T09:30:00Z,26.2168,-96.4998,1007.17,11111222 
TABS,ioos:station:wmo:42045:1,2017-08-27T10:00:00Z,26.2168,-96.4998,1007.67,11111222 
TABS,ioos:station:wmo:42045:1,2017-08-27T10:30:00Z,26.2168,-96.4998,1007.09,11111222 
TABS,ioos:station:wmo:42045:1,2017-08-27T11:00:00Z,26.2168,-96.4998,1008.22,11111222 
TABS,ioos:station:wmo:42045:1,2017-08-27T11:30:00Z,26.2168,-96.4998,1007.88,11111222 
TABS,ioos:station:wmo:42045:1,2017-08-27T12:00:00Z,26.2168,-96.4998,1007.86,11111222 
TABS,ioos:station:wmo:42045:1,2017-08-27T12:30:00Z,26.2168,-96.4998,1008.31,11111222 
TABS,ioos:station:wmo:42045:1,2017-08-27T13:00:00Z,26.2168,-96.4998,1008.72,11111222 
TABS,ioos:station:wmo:42045:1,2017-08-27T13:30:00Z,26.2168,-96.4998,1008.43,11111222 
TABS,ioos:station:wmo:42045:1,2017-08-27T14:00:00Z,26.2168,-96.4998,1009.01,11111222 
TABS,ioos:station:wmo:42045:1,2017-08-27T14:30:00Z,26.2168,-96.4998,1009.27,11111222 
TABS,ioos:station:wmo:42045:1,2017-08-27T15:00:00Z,26.2168,-96.4998,1008.74,11111222 
TABS,ioos:station:wmo:42045:1,2017-08-27T15:30:00Z,26.2168,-96.4998,1008.61,11111222 
TABS,ioos:station:wmo:42045:1,2017-08-27T16:00:00Z,26.2168,-96.4998,1008.84,11111222 
TABS,ioos:station:wmo:42045:1,2017-08-27T16:30:00Z,26.2168,-96.4998,1008.96,11111222 
TABS,ioos:station:wmo:42045:1,2017-08-27T17:00:00Z,26.2168,-96.4998,1008.63,11111222 
TABS,ioos:station:wmo:42045:1,2017-08-27T17:30:00Z,26.2168,-96.4998,1008.64,11111222 
TABS,ioos:station:wmo:42045:1,2017-08-27T18:00:00Z,26.2168,-96.4998,1008.32,11111222 
TABS,ioos:station:wmo:42045:1,2017-08-27T18:30:00Z,26.2168,-96.4998,1007.89,11111222 
TABS,ioos:station:wmo:42045:1,2017-08-27T19:00:00Z,26.2168,-96.4998,1007.5,11111222 
TABS,ioos:station:wmo:42045:1,2017-08-27T19:30:00Z,26.2168,-96.4998,1006.79,11111222 
TABS,ioos:station:wmo:42045:1,2017-08-27T20:00:00Z,26.2168,-96.4998,1006.46,11111222 
TABS,ioos:station:wmo:42045:1,2017-08-27T20:30:00Z,26.2168,-96.4998,1006.22,11111222 
TABS,ioos:station:wmo:42045:1,2017-08-27T21:00:00Z,26.2168,-96.4998,1006.09,11111222 
TABS,ioos:station:wmo:42045:1,2017-08-27T21:30:00Z,26.2168,-96.4998,1005.78,11111222 
TABS,ioos:station:wmo:42045:1,2017-08-27T22:00:00Z,26.2168,-96.4998,1005.74,11111222 
TABS,ioos:station:wmo:42045:1,2017-08-27T22:30:00Z,26.2168,-96.4998,1005.68,11111222 
TABS,ioos:station:wmo:42045:1,2017-08-27T23:00:00Z,26.2168,-96.4998,1005.47,11111222 
TABS,ioos:station:wmo:42045:1,2017-08-27T23:30:00Z,26.2168,-96.4998,1005.34,11111222 
TABS,ioos:station:wmo:42045:1,2017-08-28T00:00:00Z,26.2168,-96.4998,1005.37,11111222 
TABS,ioos:station:wmo:42045:1,2017-08-28T00:30:00Z,26.2168,-96.4998,1005.61,11111222 
TABS,ioos:station:wmo:42045:1,2017-08-28T01:00:00Z,26.2168,-96.4998,1006.12,11111222 
TABS,ioos:station:wmo:42045:1,2017-08-28T01:30:00Z,26.2168,-96.4998,1006.39,11111222 
TABS,ioos:station:wmo:42045:1,2017-08-28T02:00:00Z,26.2168,-96.4998,1006.35,11111222 
TABS,ioos:station:wmo:42045:1,2017-08-28T02:30:00Z,26.2168,-96.4998,1007.47,11111222 
TABS,ioos:station:wmo:42045:1,2017-08-28T03:00:00Z,26.2168,-96.4998,1007.46,11111222 
TABS,ioos:station:wmo:42045:1,2017-08-28T03:30:00Z,26.2168,-96.4998,1007.36,11111222 
TABS,ioos:station:wmo:42045:1,2017-08-28T04:00:00Z,26.2168,-96.4998,1007.32,11111222 
TABS,ioos:station:wmo:42045:1,2017-08-28T04:30:00Z,26.2168,-96.4998,1007.12,11111222 
TABS,ioos:station:wmo:42045:1,2017-08-28T05:00:00Z,26.2168,-96.4998,1007.29,11111222 
TABS,ioos:station:wmo:42045:1,2017-08-28T05:30:00Z,26.2168,-96.4998,1007.02,11111222 
TABS,ioos:station:wmo:42045:1,2017-08-28T06:00:00Z,26.2168,-96.4998,1007.18,11111222 
TABS,ioos:station:wmo:42045:1,2017-08-28T06:30:00Z,26.2168,-96.4998,1006.79,11111222 
TABS,ioos:station:wmo:42045:1,2017-08-28T07:00:00Z,26.2168,-96.4998,1006.34,11111222 
TABS,ioos:station:wmo:42045:1,2017-08-28T07:30:00Z,26.2168,-96.4998,1006.67,11111222 
TABS,ioos:station:wmo:42045:1,2017-08-28T08:00:00Z,26.2168,-96.4998,1005.9,11111222 
TABS,ioos:station:wmo:42045:1,2017-08-28T08:30:00Z,26.2168,-96.4998,1005.92,11111222 
TABS,ioos:station:wmo:42045:1,2017-08-28T09:00:00Z,26.2168,-96.4998,1006.06,11111222 
TABS,ioos:station:wmo:42045:1,2017-08-28T09:30:00Z,26.2168,-96.4998,1006.17,11111222 
TABS,ioos:station:wmo:42045:1,2017-08-28T10:00:00Z,26.2168,-96.4998,1006.71,11111222 
TABS,ioos:station:wmo:42045:1,2017-08-28T10:30:00Z,26.2168,-96.4998,1005.98,11111222 
TABS,ioos:station:wmo:42045:1,2017-08-28T11:00:00Z,26.2168,-96.4998,1006.66,11111222 
TABS,ioos:station:wmo:42045:1,2017-08-28T11:30:00Z,26.2168,-96.4998,1006.23,11111222 
TABS,ioos:station:wmo:42045:1,2017-08-28T12:00:00Z,26.2168,-96.4998,1006.27,11111222 
TABS,ioos:station:wmo:42045:1,2017-08-28T12:30:00Z,26.2168,-96.4998,1006.23,11111222 
TABS,ioos:station:wmo:42045:1,2017-08-28T13:00:00Z,26.2168,-96.4998,1006.81,11111222 
TABS,ioos:station:wmo:42045:1,2017-08-28T13:30:00Z,26.2168,-96.4998,1006.86,11111222 
TABS,ioos:station:wmo:42045:1,2017-08-28T14:00:00Z,26.2168,-96.4998,1006.78,11111222 
TABS,ioos:station:wmo:42045:1,2017-08-28T14:30:00Z,26.2168,-96.4998,1007.52,11111222 
TABS,ioos:station:wmo:42045:1,2017-08-28T15:00:00Z,26.2168,-96.4998,1006.54,11111222 
TABS,ioos:station:wmo:42045:1,2017-08-28T15:30:00Z,26.2168,-96.4998,1006.74,11111222 
TABS,ioos:station:wmo:42045:1,2017-08-28T16:00:00Z,26.2168,-96.4998,1006.85,11111222 
TABS,ioos:station:wmo:42045:1,2017-08-28T16:30:00Z,26.2168,-96.4998,1006.89,11111222 
TABS,ioos:station:wmo:42045:1,2017-08-28T17:00:00Z,26.2168,-96.4998,1006.42,11111222 
TABS,ioos:station:wmo:42045:1,2017-08-28T17:30:00Z,26.2168,-96.4998,1005.92,11111222 
TABS,ioos:station:wmo:42045:1,2017-08-28T18:00:00Z,26.2168,-96.4998,1006.73,11111222 
TABS,ioos:station:wmo:42045:1,2017-08-28T18:30:00Z,26.2168,-96.4998,1006.48,11111222 
TABS,ioos:station:wmo:42045:1,2017-08-28T19:00:00Z,26.2168,-96.4998,1006.42,11111222 
TABS,ioos:station:wmo:42045:1,2017-08-28T19:30:00Z,26.2168,-96.4998,1006.29,11111222 
TABS,ioos:station:wmo:42045:1,2017-08-28T20:00:00Z,26.2168,-96.4998,1006.02,11111222 
TABS,ioos:station:wmo:42045:1,2017-08-28T20:30:00Z,26.2168,-96.4998,1005.32,11111222 
TABS,ioos:station:wmo:42045:1,2017-08-28T21:00:00Z,26.2168,-96.4998,1005.39,11111222 
TABS,ioos:station:wmo:42045:1,2017-08-28T21:30:00Z,26.2168,-96.4998,1005.65,11111222 
TABS,ioos:station:wmo:42045:1,2017-08-28T22:00:00Z,26.2168,-96.4998,1005.34,11111222 
TABS,ioos:station:wmo:42045:1,2017-08-28T22:30:00Z,26.2168,-96.4998,1005.39,11111222 
TABS,ioos:station:wmo:42045:1,2017-08-28T23:00:00Z,26.2168,-96.4998,1005.55,11111222 
TABS,ioos:station:wmo:42045:1,2017-08-28T23:30:00Z,26.2168,-96.4998,1005.32,11111222 
TABS,ioos:station:wmo:42045:1,2017-08-29T00:00:00Z,26.2168,-96.4998,1005.7,11111222 
TABS,ioos:station:wmo:42045:1,2017-08-29T00:30:00Z,26.2168,-96.4998,1005.89,11111222 
TABS,ioos:station:wmo:42045:1,2017-08-29T01:00:00Z,26.2168,-96.4998,1005.67,11111222 
TABS,ioos:station:wmo:42045:1,2017-08-29T01:30:00Z,26.2168,-96.4998,1004.87,11111222 
TABS,ioos:station:wmo:42045:1,2017-08-29T02:00:00Z,26.2168,-96.4998,1006.22,11111222 
TABS,ioos:station:wmo:42045:1,2017-08-29T02:30:00Z,26.2168,-96.4998,1007.22,11111222 
TABS,ioos:station:wmo:42045:1,2017-08-29T03:00:00Z,26.2168,-96.4998,1006.91,11111222 
TABS,ioos:station:wmo:42045:1,2017-08-29T03:30:00Z,26.2168,-96.4998,1007.62,11111222 
TABS,ioos:station:wmo:42045:1,2017-08-29T04:00:00Z,26.2168,-96.4998,1006.35,11111222 
TABS,ioos:station:wmo:42045:1,2017-08-29T04:30:00Z,26.2168,-96.4998,1006.89,11111222 
TABS,ioos:station:wmo:42045:1,2017-08-29T05:00:00Z,26.2168,-96.4998,1007.44,11111222 
TABS,ioos:station:wmo:42045:1,2017-08-29T05:30:00Z,26.2168,-96.4998,1006.6,11111222 
TABS,ioos:station:wmo:42045:1,2017-08-29T06:00:00Z,26.2168,-96.4998,1006.6,11111222 
TABS,ioos:station:wmo:42045:1,2017-08-29T06:30:00Z,26.2168,-96.4998,1006.21,11111222 
TABS,ioos:station:wmo:42045:1,2017-08-29T07:00:00Z,26.2168,-96.4998,1006.22,11111222 
TABS,ioos:station:wmo:42045:1,2017-08-29T07:30:00Z,26.2168,-96.4998,1005.92,11111222 
TABS,ioos:station:wmo:42045:1,2017-08-29T08:00:00Z,26.2168,-96.4998,1005.89,11111222 
TABS,ioos:station:wmo:42045:1,2017-08-29T08:30:00Z,26.2168,-96.4998,1005.98,11111222 
TABS,ioos:station:wmo:42045:1,2017-08-29T09:00:00Z,26.2168,-96.4998,1006.67,11111222 
TABS,ioos:station:wmo:42045:1,2017-08-29T09:30:00Z,26.2168,-96.4998,1006.67,11111222 
TABS,ioos:station:wmo:42045:1,2017-08-29T10:00:00Z,26.2168,-96.4998,1006.17,11111222 
TABS,ioos:station:wmo:42045:1,2017-08-29T10:30:00Z,26.2168,-96.4998,1006.21,11111222 
TABS,ioos:station:wmo:42045:1,2017-08-29T11:00:00Z,26.2168,-96.4998,1006.45,11111222 
TABS,ioos:station:wmo:42045:1,2017-08-29T11:30:00Z,26.2168,-96.4998,1007.02,11111222 
TABS,ioos:station:wmo:42045:1,2017-08-29T12:00:00Z,26.2168,-96.4998,1007.17,11111222 
TABS,ioos:station:wmo:42045:1,2017-08-29T12:30:00Z,26.2168,-96.4998,1008.22,11111222 
TABS,ioos:station:wmo:42045:1,2017-08-29T13:00:00Z,26.2168,-96.4998,1008.21,11111222 
TABS,ioos:station:wmo:42045:1,2017-08-29T13:30:00Z,26.2168,-96.4998,1008.74,11111222 
TABS,ioos:station:wmo:42045:1,2017-08-29T14:00:00Z,26.2168,-96.4998,1008.69,11111222 
TABS,ioos:station:wmo:42045:1,2017-08-29T14:30:00Z,26.2168,-96.4998,1008.66,11111222 
TABS,ioos:station:wmo:42045:1,2017-08-29T15:00:00Z,26.2168,-96.4998,1008.9,11111222 
TABS,ioos:station:wmo:42045:1,2017-08-29T15:30:00Z,26.2168,-96.4998,1008.78,11111222 
TABS,ioos:station:wmo:42045:1,2017-08-29T16:00:00Z,26.2168,-96.4998,1009.25,11111222 
TABS,ioos:station:wmo:42045:1,2017-08-29T16:30:00Z,26.2168,-96.4998,1009.28,11111222 
TABS,ioos:station:wmo:42045:1,2017-08-29T17:00:00Z,26.2168,-96.4998,1009.22,11111222 
TABS,ioos:station:wmo:42045:1,2017-08-29T17:30:00Z,26.2168,-96.4998,1009.19,11111222 
TABS,ioos:station:wmo:42045:1,2017-08-29T18:00:00Z,26.2168,-96.4998,1009.87,11111222 
TABS,ioos:station:wmo:42045:1,2017-08-29T18:30:00Z,26.2168,-96.4998,1008.94,11111222 
TABS,ioos:station:wmo:42045:1,2017-08-29T19:00:00Z,26.2168,-96.4998,1008.97,11111222 
TABS,ioos:station:wmo:42045:1,2017-08-29T19:30:00Z,26.2168,-96.4998,1008.78,11111222 
TABS,ioos:station:wmo:42045:1,2017-08-29T20:00:00Z,26.2168,-96.4998,1008.45,11111222 
TABS,ioos:station:wmo:42045:1,2017-08-29T20:30:00Z,26.2168,-96.4998,1007.92,11111222 
TABS,ioos:station:wmo:42045:1,2017-08-29T21:00:00Z,26.2168,-96.4998,1008.52,11111222 
TABS,ioos:station:wmo:42045:1,2017-08-29T21:30:00Z,26.2168,-96.4998,1008.14,11111222 
TABS,ioos:station:wmo:42045:1,2017-08-29T22:00:00Z,26.2168,-96.4998,1008.3,11111222 
TABS,ioos:station:wmo:42045:1,2017-08-29T22:30:00Z,26.2168,-96.4998,1008.57,11111222 
TABS,ioos:station:wmo:42045:1,2017-08-29T23:00:00Z,26.2168,-96.4998,1008.56,11111222 
TABS,ioos:station:wmo:42045:1,2017-08-29T23:30:00Z,26.2168,-96.4998,1008.54,11111222 
TABS,ioos:station:wmo:42045:1,2017-08-30T00:00:00Z,26.2168,-96.4998,1008.32,11111222 
TABS,ioos:station:wmo:42045:1,2017-08-30T00:30:00Z,26.2168,-96.4998,1008.7,11111222 
TABS,ioos:station:wmo:42045:1,2017-08-30T01:00:00Z,26.2168,-96.4998,1008.44,11111222 
TABS,ioos:station:wmo:42045:1,2017-08-30T01:30:00Z,26.2168,-96.4998,1008.86,11111222 
TABS,ioos:station:wmo:42045:1,2017-08-30T02:00:00Z,26.2168,-96.4998,1009.22,11111222 
TABS,ioos:station:wmo:42045:1,2017-08-30T02:30:00Z,26.2168,-96.4998,1009.63,11111222 
TABS,ioos:station:wmo:42045:1,2017-08-30T03:00:00Z,26.2168,-96.4998,1009.74,11111222 
TABS,ioos:station:wmo:42045:1,2017-08-30T03:30:00Z,26.2168,-96.4998,1010.14,11111222 
TABS,ioos:station:wmo:42045:1,2017-08-30T04:00:00Z,26.2168,-96.4998,1010.35,11111222 